Time,TemperatureF,DewpointF,PressureIn,WindDirection,WindDirectionDegrees,WindSpeedMPH,WindSpeedGustMPH,Humidity,HourlyPrecipIn,Conditions,Clouds,dailyrainin,SoftwareType,DateUTC
2013-01-28 00:01:00,45.0,45.0,30.19,NW,319,14.0,26.0,100,0.00,,,0.55,,2013-01-28 08:01:00,
2013-01-28 00:11:00,45.0,45.0,30.19,NNW,331,13.0,26.0,100,0.00,,,0.53,,2013-01-28 08:11:00,
2013-01-28 00:21:00,45.0,45.0,30.19,NNW,331,13.0,26.0,100,0.00,,,0.53,,2013-01-28 08:21:00,
2013-01-28 00:31:00,45.0,45.0,30.20,WNW,299,16.0,26.0,100,0.00,,,0.53,,2013-01-28 08:31:00,
2013-01-28 00:41:00,45.0,45.0,30.20,WNW,299,16.0,26.0,100,0.00,,,0.53,,2013-01-28 08:41:00,
2013-01-28 00:52:00,45.0,45.0,30.20,WNW,294,16.0,25.0,100,0.00,,,0.53,,2013-01-28 08:52:00,
2013-01-28 01:01:00,45.0,45.0,30.20,WNW,299,15.0,25.0,100,0.00,,,0.53,,2013-01-28 09:01:00,
2013-01-28 01:11:00,45.0,45.0,30.20,WNW,299,15.0,25.0,100,0.00,,,0.53,,2013-01-28 09:11:00,
2013-01-28 01:21:00,44.0,44.0,30.21,NW,306,15.0,31.0,100,0.00,,,0.52,,2013-01-28 09:21:00,
2013-01-28 01:31:00,45.0,45.0,30.21,WNW,295,17.0,23.0,100,0.01,,,0.52,,2013-01-28 09:31:00,
2013-01-28 01:41:00,45.0,45.0,30.21,WNW,295,17.0,23.0,100,0.01,,,0.52,,2013-01-28 09:41:00,
2013-01-28 01:52:00,45.0,45.0,30.21,West,275,15.0,27.0,100,0.01,,,0.52,,2013-01-28 09:52:00,
2013-01-28 02:01:00,45.0,45.0,30.21,NW,320,19.0,25.0,100,0.01,,,0.52,,2013-01-28 10:01:00,
2013-01-28 02:11:00,45.0,45.0,30.21,NW,320,19.0,25.0,100,0.01,,,0.52,,2013-01-28 10:11:00,
2013-01-28 02:21:00,45.0,45.0,30.22,NW,324,16.0,25.0,100,0.01,,,0.50,,2013-01-28 10:21:00,
2013-01-28 02:31:00,46.0,46.0,30.23,WNW,301,15.0,23.0,100,0.00,,,0.50,,2013-01-28 10:31:00,
2013-01-28 02:41:00,46.0,46.0,30.23,WNW,301,15.0,23.0,100,0.00,,,0.50,,2013-01-28 10:41:00,
2013-01-28 02:52:00,46.0,46.0,30.23,WNW,296,17.0,26.0,100,0.00,,,0.50,,2013-01-28 10:52:00,
2013-01-28 03:01:00,46.0,46.0,30.23,WNW,301,19.0,29.0,100,0.00,,,0.50,,2013-01-28 11:01:00,
2013-01-28 03:11:00,46.0,46.0,30.23,WNW,301,19.0,29.0,100,0.00,,,0.50,,2013-01-28 11:11:00,
2013-01-28 03:21:00,46.0,46.0,30.23,WNW,295,14.0,29.0,100,0.00,,,0.50,,2013-01-28 11:21:00,
2013-01-28 03:31:00,46.0,46.0,30.23,WNW,296,15.0,26.0,100,0.00,,,0.50,,2013-01-28 11:31:00,
2013-01-28 03:41:00,46.0,46.0,30.23,WNW,296,15.0,26.0,100,0.00,,,0.50,,2013-01-28 11:41:00,
2013-01-28 03:52:00,46.0,46.0,30.23,WNW,301,18.0,28.0,100,0.00,,,0.50,,2013-01-28 11:52:00,
2013-01-28 04:02:00,46.0,46.0,30.23,WNW,284,15.0,26.0,100,0.00,,,0.50,,2013-01-28 12:02:00,
2013-01-28 04:11:00,46.0,46.0,30.23,WNW,284,15.0,26.0,100,0.00,,,0.50,,2013-01-28 12:11:00,
2013-01-28 04:22:00,46.0,46.0,30.23,WNW,298,15.0,24.0,100,0.00,,,0.50,,2013-01-28 12:22:00,
2013-01-28 04:32:00,46.0,46.0,30.24,WSW,256,17.0,26.0,100,0.00,,,0.50,,2013-01-28 12:32:00,
2013-01-28 04:41:00,46.0,46.0,30.24,WSW,256,17.0,26.0,100,0.00,,,0.50,,2013-01-28 12:41:00,
2013-01-28 04:52:00,46.0,46.0,30.24,WNW,284,14.0,27.0,100,0.00,,,0.50,,2013-01-28 12:52:00,
2013-01-28 05:02:00,45.0,45.0,30.25,WNW,289,21.0,31.0,100,0.00,,,0.50,,2013-01-28 13:02:00,
2013-01-28 05:11:00,45.0,45.0,30.25,WNW,289,21.0,31.0,100,0.00,,,0.50,,2013-01-28 13:11:00,
2013-01-28 05:22:00,44.0,44.0,30.25,West,268,13.0,31.0,100,0.00,,,0.48,,2013-01-28 13:22:00,
2013-01-28 05:32:00,44.0,44.0,30.25,West,266,12.0,21.0,100,0.00,,,0.48,,2013-01-28 13:32:00,
2013-01-28 05:41:00,44.0,44.0,30.25,West,266,12.0,21.0,100,0.00,,,0.48,,2013-01-28 13:41:00,
2013-01-28 05:52:00,44.0,44.0,30.25,WNW,298,13.0,17.0,100,0.01,,,0.48,,2013-01-28 13:52:00,
2013-01-28 06:02:00,44.0,44.0,30.25,WSW,256,17.0,27.0,100,0.04,,,0.48,,2013-01-28 14:02:00,
2013-01-28 06:11:00,44.0,44.0,30.25,WSW,256,17.0,27.0,100,0.04,,,0.48,,2013-01-28 14:11:00,
2013-01-28 06:21:00,44.0,44.0,30.25,NW,315,17.0,30.0,100,0.04,,,0.51,,2013-01-28 14:21:00,
2013-01-28 06:32:00,44.0,44.0,30.26,NW,305,12.0,25.0,100,0.05,,,0.51,,2013-01-28 14:32:00,
2013-01-28 06:42:00,44.0,44.0,30.26,NW,305,12.0,25.0,100,0.05,,,0.51,,2013-01-28 14:42:00,
2013-01-28 06:52:00,43.0,43.0,30.26,NW,308,13.0,29.0,100,0.05,,,0.51,,2013-01-28 14:52:00,
2013-01-28 07:02:00,44.0,44.0,30.26,WNW,285,16.0,28.0,100,0.04,,,0.51,,2013-01-28 15:02:00,
2013-01-28 07:11:00,44.0,44.0,30.26,WNW,285,16.0,28.0,100,0.04,,,0.51,,2013-01-28 15:11:00,
2013-01-28 07:22:00,44.0,44.0,30.27,West,274,17.0,24.0,100,0.04,,,0.55,,2013-01-28 15:22:00,
2013-01-28 07:32:00,44.0,44.0,30.27,WNW,287,16.0,22.0,100,0.03,,,0.55,,2013-01-28 15:32:00,
2013-01-28 07:42:00,44.0,44.0,30.27,WNW,287,16.0,22.0,100,0.03,,,0.55,,2013-01-28 15:42:00,
2013-01-28 07:53:00,44.0,44.0,30.27,WNW,301,15.0,22.0,100,0.02,,,0.55,,2013-01-28 15:53:00,
2013-01-28 08:02:00,44.0,44.0,30.27,WNW,301,15.0,26.0,100,0.01,,,0.55,,2013-01-28 16:02:00,
2013-01-28 08:11:00,44.0,44.0,30.27,WNW,301,15.0,26.0,100,0.01,,,0.55,,2013-01-28 16:11:00,
2013-01-28 08:21:00,44.0,44.0,30.28,NW,324,13.0,22.0,100,0.02,,,0.56,,2013-01-28 16:21:00,
2013-01-28 08:31:00,44.0,44.0,30.28,NW,313,10.0,17.0,100,0.03,,,0.56,,2013-01-28 16:31:00,
2013-01-28 08:42:00,44.0,44.0,30.28,NW,313,10.0,17.0,100,0.03,,,0.56,,2013-01-28 16:42:00,
2013-01-28 08:52:00,44.0,44.0,30.27,WNW,296,10.0,14.0,100,0.03,,,0.56,,2013-01-28 16:52:00,
2013-01-28 09:01:00,44.0,44.0,30.28,NNW,345,9.0,16.0,100,0.03,,,0.56,,2013-01-28 17:01:00,
2013-01-28 09:11:00,44.0,44.0,30.28,NNW,345,9.0,16.0,100,0.03,,,0.56,,2013-01-28 17:11:00,
2013-01-28 09:22:00,44.0,44.0,30.28,NW,313,7.0,12.0,100,0.04,,,0.59,,2013-01-28 17:22:00,
2013-01-28 09:31:00,44.0,44.0,30.28,WNW,302,5.0,10.0,100,0.03,,,0.59,,2013-01-28 17:31:00,
2013-01-28 09:41:00,44.0,44.0,30.28,WNW,302,5.0,10.0,100,0.03,,,0.59,,2013-01-28 17:41:00,
2013-01-28 09:52:00,44.0,44.0,30.29,NW,320,7.0,14.0,100,0.04,,,0.59,,2013-01-28 17:52:00,
2013-01-28 10:01:00,44.0,44.0,30.29,WNW,302,10.0,15.0,100,0.05,,,0.59,,2013-01-28 18:01:00,
2013-01-28 10:11:00,44.0,44.0,30.29,WNW,302,10.0,15.0,100,0.05,,,0.59,,2013-01-28 18:11:00,
2013-01-28 10:22:00,44.0,44.0,30.29,WNW,298,9.0,13.0,100,0.04,,,0.63,,2013-01-28 18:22:00,
2013-01-28 10:33:00,45.0,45.0,30.29,WNW,295,8.0,11.0,100,0.04,,,0.63,,2013-01-28 18:33:00,
2013-01-28 10:42:00,45.0,45.0,30.29,WNW,295,8.0,11.0,100,0.04,,,0.63,,2013-01-28 18:42:00,
2013-01-28 10:52:00,45.0,45.0,30.30,West,278,10.0,15.0,100,0.03,,,0.63,,2013-01-28 18:52:00,
2013-01-28 11:01:00,45.0,45.0,30.30,West,271,14.0,18.0,100,0.03,,,0.63,,2013-01-28 19:01:00,
2013-01-28 11:11:00,45.0,45.0,30.31,West,273,14.0,20.0,100,0.03,,,0.64,,2013-01-28 19:11:00,
2013-01-28 11:21:00,45.0,45.0,30.31,West,273,14.0,20.0,100,0.03,,,0.64,,2013-01-28 19:21:00,
2013-01-28 11:31:00,45.0,45.0,30.31,West,264,15.0,26.0,100,0.04,,,0.64,,2013-01-28 19:31:00,
2013-01-28 11:42:00,45.0,45.0,30.31,West,264,15.0,26.0,100,0.04,,,0.64,,2013-01-28 19:42:00,
2013-01-28 11:52:00,46.0,46.0,30.31,WNW,291,13.0,21.0,100,0.03,,,0.64,,2013-01-28 19:52:00,
2013-01-28 12:01:00,46.0,46.0,30.30,WSW,253,18.0,24.0,100,0.02,,,0.64,,2013-01-28 20:01:00,
2013-01-28 12:11:00,46.0,46.0,30.30,WSW,253,18.0,24.0,100,0.02,,,0.64,,2013-01-28 20:11:00,
2013-01-28 12:21:00,46.0,46.0,30.30,West,259,19.0,28.0,100,0.01,,,0.63,,2013-01-28 20:21:00,
2013-01-28 12:32:00,46.0,46.0,30.30,WNW,292,17.0,24.0,100,0.00,,,0.63,,2013-01-28 20:32:00,
2013-01-28 12:42:00,46.0,46.0,30.30,WNW,292,17.0,24.0,100,0.00,,,0.63,,2013-01-28 20:42:00,
2013-01-28 12:52:00,46.0,46.0,30.31,WSW,247,22.0,25.0,100,0.00,,,0.63,,2013-01-28 20:52:00,
2013-01-28 13:02:00,46.0,46.0,30.31,West,266,22.0,28.0,100,0.00,,,0.63,,2013-01-28 21:02:00,
2013-01-28 13:11:00,46.0,46.0,30.31,West,266,22.0,28.0,100,0.00,,,0.63,,2013-01-28 21:11:00,
2013-01-28 13:21:00,46.0,46.0,30.30,West,264,22.0,27.0,100,0.00,,,0.59,,2013-01-28 21:21:00,
2013-01-28 13:32:00,46.0,46.0,30.30,West,270,19.0,28.0,100,0.00,,,0.59,,2013-01-28 21:32:00,
2013-01-28 13:42:00,46.0,46.0,30.30,West,270,19.0,28.0,100,0.00,,,0.59,,2013-01-28 21:42:00,
2013-01-28 13:52:00,46.0,46.0,30.30,WNW,285,18.0,24.0,100,0.00,,,0.59,,2013-01-28 21:52:00,
2013-01-28 14:01:00,45.0,45.0,30.30,West,277,16.0,31.0,100,0.00,,,0.59,,2013-01-28 22:01:00,
2013-01-28 14:11:00,45.0,45.0,30.30,West,277,16.0,31.0,100,0.00,,,0.59,,2013-01-28 22:11:00,
2013-01-28 14:22:00,45.0,45.0,30.29,West,270,12.0,26.0,100,0.00,,,0.51,,2013-01-28 22:22:00,
2013-01-28 14:31:00,45.0,45.0,30.29,West,273,18.0,25.0,100,0.00,,,0.51,,2013-01-28 22:31:00,
2013-01-28 14:42:00,45.0,45.0,30.29,West,273,18.0,25.0,100,0.00,,,0.51,,2013-01-28 22:42:00,
2013-01-28 14:52:00,46.0,46.0,30.30,West,266,19.0,28.0,100,0.00,,,0.51,,2013-01-28 22:52:00,
2013-01-28 15:01:00,45.0,45.0,30.31,West,268,16.0,25.0,100,0.00,,,0.51,,2013-01-28 23:01:00,
2013-01-28 15:11:00,45.0,45.0,30.31,West,268,16.0,25.0,100,0.00,,,0.51,,2013-01-28 23:11:00,
2013-01-28 15:21:00,45.0,45.0,30.31,West,266,18.0,27.0,100,0.01,,,0.45,,2013-01-28 23:21:00,
2013-01-28 15:31:00,45.0,45.0,30.32,West,278,15.0,29.0,100,0.02,,,0.45,,2013-01-28 23:31:00,
2013-01-28 15:41:00,45.0,45.0,30.32,West,278,15.0,29.0,100,0.02,,,0.45,,2013-01-28 23:41:00,
2013-01-28 15:52:00,45.0,45.0,30.31,West,267,15.0,26.0,100,0.02,,,0.45,,2013-01-28 23:52:00,
2013-01-28 16:01:00,45.0,45.0,30.32,West,280,16.0,23.0,100,0.02,,,0.45,,2013-01-29 00:01:00,
2013-01-28 16:11:00,45.0,45.0,30.32,West,280,16.0,23.0,100,0.02,,,0.45,,2013-01-29 00:11:00,
2013-01-28 16:21:00,46.0,46.0,30.32,West,267,18.0,23.0,100,0.01,,,0.40,,2013-01-29 00:21:00,
2013-01-28 16:32:00,45.0,45.0,30.32,WNW,288,14.0,30.0,100,0.00,,,0.40,,2013-01-29 00:32:00,
2013-01-28 16:41:00,45.0,45.0,30.32,WNW,288,14.0,30.0,100,0.00,,,0.40,,2013-01-29 00:41:00,
2013-01-28 16:52:00,45.0,45.0,30.32,WSW,256,16.0,30.0,100,0.00,,,0.40,,2013-01-29 00:52:00,
2013-01-28 17:01:00,44.0,44.0,30.31,WSW,246,16.0,30.0,100,0.00,,,0.40,,2013-01-29 01:01:00,
2013-01-28 17:11:00,44.0,44.0,30.31,WSW,246,16.0,30.0,100,0.00,,,0.40,,2013-01-29 01:11:00,
2013-01-28 17:22:00,45.0,45.0,30.32,West,274,17.0,28.0,100,0.00,,,0.37,,2013-01-29 01:22:00,
2013-01-28 17:31:00,45.0,45.0,30.32,West,268,12.0,26.0,100,0.00,,,0.37,,2013-01-29 01:31:00,
2013-01-28 17:41:00,45.0,45.0,30.32,West,268,12.0,26.0,100,0.00,,,0.37,,2013-01-29 01:41:00,
2013-01-28 17:52:00,45.0,45.0,30.33,West,259,17.0,27.0,100,0.01,,,0.37,,2013-01-29 01:52:00,
2013-01-28 18:01:00,45.0,45.0,30.33,West,273,12.0,22.0,100,0.01,,,0.37,,2013-01-29 02:01:00,
2013-01-28 18:11:00,45.0,45.0,30.33,West,273,12.0,22.0,100,0.01,,,0.37,,2013-01-29 02:11:00,
2013-01-28 18:21:00,45.0,45.0,30.32,West,266,19.0,28.0,100,0.01,,,0.34,,2013-01-29 02:21:00,
2013-01-28 18:32:00,45.0,45.0,30.33,West,278,15.0,23.0,100,0.01,,,0.34,,2013-01-29 02:32:00,
2013-01-28 18:41:00,45.0,45.0,30.33,West,278,15.0,23.0,100,0.01,,,0.34,,2013-01-29 02:41:00,
2013-01-28 18:52:00,45.0,45.0,30.33,West,271,14.0,19.0,100,0.01,,,0.34,,2013-01-29 02:52:00,
2013-01-28 19:02:00,45.0,45.0,30.33,West,271,17.0,22.0,100,0.01,,,0.34,,2013-01-29 03:02:00,
2013-01-28 19:11:00,45.0,45.0,30.33,West,271,17.0,22.0,100,0.01,,,0.34,,2013-01-29 03:11:00,
2013-01-28 19:21:00,45.0,45.0,30.33,West,259,13.0,25.0,100,0.01,,,0.32,,2013-01-29 03:21:00,
2013-01-28 19:31:00,45.0,45.0,30.33,West,274,24.0,36.0,100,0.01,,,0.32,,2013-01-29 03:31:00,
2013-01-28 19:41:00,45.0,45.0,30.33,West,274,24.0,36.0,100,0.01,,,0.32,,2013-01-29 03:41:00,
2013-01-28 19:52:00,45.0,45.0,30.34,West,271,18.0,26.0,100,0.00,,,0.32,,2013-01-29 03:52:00,
2013-01-28 20:01:00,45.0,45.0,30.34,WNW,284,18.0,24.0,100,0.01,,,0.32,,2013-01-29 04:01:00,
2013-01-28 20:11:00,45.0,45.0,30.34,WNW,284,18.0,24.0,100,0.01,,,0.32,,2013-01-29 04:11:00,
2013-01-28 20:21:00,45.0,45.0,30.34,WSW,256,24.0,33.0,100,0.01,,,0.32,,2013-01-29 04:21:00,
2013-01-28 20:31:00,45.0,45.0,30.34,West,278,15.0,28.0,100,0.04,,,0.32,,2013-01-29 04:31:00,
2013-01-28 20:41:00,45.0,45.0,30.34,West,278,15.0,28.0,100,0.04,,,0.32,,2013-01-29 04:41:00,
2013-01-28 20:51:00,45.0,45.0,30.34,WSW,256,18.0,26.0,100,0.06,,,0.33,,2013-01-29 04:51:00,
2013-01-28 21:03:00,45.0,45.0,30.34,West,267,17.0,22.0,100,0.05,,,0.34,,2013-01-29 05:03:00,
2013-01-28 21:12:00,45.0,45.0,30.34,West,267,17.0,22.0,100,0.05,,,0.34,,2013-01-29 05:12:00,
2013-01-28 21:21:00,45.0,45.0,30.33,West,277,21.0,25.0,100,0.04,,,0.35,,2013-01-29 05:21:00,
2013-01-28 21:31:00,45.0,45.0,30.34,West,268,22.0,28.0,100,0.03,,,0.35,,2013-01-29 05:31:00,
2013-01-28 21:42:00,45.0,45.0,30.34,West,268,22.0,28.0,100,0.03,,,0.35,,2013-01-29 05:42:00,
2013-01-28 21:52:00,45.0,45.0,30.34,West,264,19.0,28.0,100,0.02,,,0.35,,2013-01-29 05:52:00,
2013-01-28 22:01:00,45.0,45.0,30.34,West,268,18.0,26.0,100,0.03,,,0.36,,2013-01-29 06:01:00,
2013-01-28 22:11:00,45.0,45.0,30.34,West,268,18.0,26.0,100,0.03,,,0.36,,2013-01-29 06:11:00,
2013-01-28 22:21:00,45.0,45.0,30.35,West,274,16.0,28.0,100,0.03,,,0.37,,2013-01-29 06:21:00,
2013-01-28 22:31:00,45.0,45.0,30.35,West,278,16.0,27.0,100,0.05,,,0.39,,2013-01-29 06:31:00,
2013-01-28 22:41:00,45.0,45.0,30.35,West,278,16.0,27.0,100,0.05,,,0.39,,2013-01-29 06:41:00,
2013-01-28 22:52:00,45.0,45.0,30.35,West,266,17.0,26.0,100,0.07,,,0.43,,2013-01-29 06:52:00,
2013-01-28 23:01:00,45.0,45.0,30.35,WSW,242,16.0,26.0,100,0.08,,,0.44,,2013-01-29 07:01:00,
2013-01-28 23:11:00,45.0,45.0,30.35,WSW,242,16.0,26.0,100,0.08,,,0.44,,2013-01-29 07:11:00,
2013-01-28 23:21:00,45.0,45.0,30.35,West,271,15.0,28.0,100,0.08,,,0.44,,2013-01-29 07:21:00,
2013-01-28 23:31:00,45.0,45.0,30.36,West,268,16.0,27.0,100,0.07,,,0.44,,2013-01-29 07:31:00,
2013-01-28 23:41:00,45.0,45.0,30.36,West,268,16.0,27.0,100,0.07,,,0.44,,2013-01-29 07:41:00,
2013-01-28 23:52:00,45.0,45.0,30.36,West,270,16.0,29.0,100,0.07,,,0.44,,2013-01-29 07:52:00,